TimeCST,TemperatureF,Dew PointF,Humidity,Sea Level PressureIn,VisibilityMPH,Wind Direction,Wind SpeedMPH,Gust SpeedMPH,PrecipitationIn,Events,Conditions,WindDirDegrees,DateUTC
12:15 AM,28.4,24.8,86,30.25,10.0,SW,6.9,-,N/A,,Overcast,220,2013-03-01 06:15:00
12:35 AM,28.4,26.6,93,30.24,10.0,Calm,Calm,-,N/A,,Mostly Cloudy,0,2013-03-01 06:35:00
1:15 AM,26.6,23.0,86,30.24,10.0,Calm,Calm,-,N/A,,Clear,0,2013-03-01 07:15:00
1:35 AM,28.4,26.6,93,30.24,10.0,Calm,Calm,-,N/A,,Clear,0,2013-03-01 07:35:00
1:55 AM,28.4,24.8,86,30.24,10.0,West,3.5,-,N/A,,Scattered Clouds,260,2013-03-01 07:55:00
2:15 AM,28.4,24.8,86,30.24,10.0,SW,4.6,-,N/A,,Scattered Clouds,230,2013-03-01 08:15:00
2:35 AM,26.6,23.0,86,30.23,10.0,Calm,Calm,-,N/A,,Clear,0,2013-03-01 08:35:00
2:55 AM,28.4,24.8,86,30.23,10.0,Calm,Calm,-,N/A,,Clear,0,2013-03-01 08:55:00
3:15 AM,26.6,23.0,86,30.23,10.0,Calm,Calm,-,N/A,,Scattered Clouds,0,2013-03-01 09:15:00
3:35 AM,28.4,26.6,93,30.21,10.0,Calm,Calm,-,N/A,,Mostly Cloudy,0,2013-03-01 09:35:00
4:15 AM,26.6,23.0,86,30.21,10.0,SW,3.5,-,N/A,,Overcast,230,2013-03-01 10:15:00
4:35 AM,26.6,24.8,93,30.21,10.0,WSW,3.5,-,N/A,,Mostly Cloudy,250,2013-03-01 10:35:00
4:55 AM,24.8,21.2,86,30.21,10.0,SW,5.8,-,N/A,,Clear,230,2013-03-01 10:55:00
5:15 AM,23.0,21.2,93,30.21,10.0,SW,9.2,-,N/A,,Scattered Clouds,220,2013-03-01 11:15:00
5:35 AM,23.0,21.2,93,30.22,10.0,SW,9.2,-,N/A,,Scattered Clouds,230,2013-03-01 11:35:00
6:15 AM,24.8,21.2,86,30.23,10.0,SSW,6.9,-,N/A,,Mostly Cloudy,200,2013-03-01 12:15:00
6:35 AM,24.8,23.0,93,30.24,10.0,SW,5.8,-,N/A,,Overcast,230,2013-03-01 12:35:00
6:55 AM,26.6,23.0,86,30.23,10.0,SW,10.4,-,N/A,,Overcast,220,2013-03-01 12:55:00
7:15 AM,26.6,23.0,86,30.23,10.0,SSW,9.2,-,N/A,,Overcast,210,2013-03-01 13:15:00
7:35 AM,24.8,21.2,86,30.23,10.0,SSW,8.1,-,N/A,,Scattered Clouds,210,2013-03-01 13:35:00
8:15 AM,26.6,23.0,86,30.26,10.0,ESE,3.5,-,N/A,,Mostly Cloudy,120,2013-03-01 14:15:00
8:35 AM,26.6,23.0,86,30.27,10.0,Calm,Calm,-,N/A,,Scattered Clouds,0,2013-03-01 14:35:00
8:55 AM,30.2,23.0,75,30.27,10.0,Calm,Calm,-,N/A,,Clear,0,2013-03-01 14:55:00
9:15 AM,32.0,26.6,80,30.28,10.0,NNW,4.6,-,N/A,,Clear,330,2013-03-01 15:15:00
9:35 AM,32.0,26.6,80,30.28,10.0,NW,4.6,-,N/A,,Clear,320,2013-03-01 15:35:00
9:55 AM,33.8,28.4,81,30.29,10.0,NNW,8.1,-,N/A,,Clear,340,2013-03-01 15:55:00
10:15 AM,33.8,28.4,81,30.30,10.0,North,10.4,-,N/A,,Scattered Clouds,360,2013-03-01 16:15:00
10:35 AM,33.8,28.4,81,30.30,10.0,North,9.2,-,N/A,,Mostly Cloudy,10,2013-03-01 16:35:00
11:15 AM,33.8,28.4,81,30.31,10.0,NNE,8.1,-,N/A,,Mostly Cloudy,30,2013-03-01 17:15:00
11:35 AM,33.8,28.4,81,30.32,10.0,North,9.2,-,N/A,,Overcast,360,2013-03-01 17:35:00
11:55 AM,33.8,28.4,81,30.32,10.0,North,4.6,-,N/A,,Scattered Clouds,360,2013-03-01 17:55:00
12:15 PM,35.6,28.4,75,30.32,10.0,NNW,6.9,-,N/A,,Clear,340,2013-03-01 18:15:00
12:35 PM,35.6,28.4,75,30.32,10.0,North,5.8,-,N/A,,Clear,350,2013-03-01 18:35:00
12:55 PM,35.6,28.4,75,30.32,10.0,NNW,8.1,-,N/A,,Clear,340,2013-03-01 18:55:00
1:15 PM,35.6,30.2,81,30.31,10.0,NNW,4.6,-,N/A,,Clear,340,2013-03-01 19:15:00
1:35 PM,35.6,28.4,75,30.31,10.0,NNW,5.8,-,N/A,,Clear,330,2013-03-01 19:35:00
1:55 PM,37.4,30.2,75,30.31,10.0,NNW,11.5,-,N/A,,Clear,330,2013-03-01 19:55:00
2:15 PM,37.4,30.2,75,30.30,10.0,NNW,9.2,-,N/A,,Clear,340,2013-03-01 20:15:00
2:35 PM,37.4,30.2,75,30.29,10.0,NNW,8.1,-,N/A,,Scattered Clouds,330,2013-03-01 20:35:00
2:55 PM,37.4,30.2,75,30.29,10.0,NNW,8.1,-,N/A,,Scattered Clouds,340,2013-03-01 20:55:00
3:15 PM,37.4,30.2,75,30.29,10.0,North,6.9,-,N/A,,Clear,360,2013-03-01 21:15:00
3:35 PM,37.4,30.2,75,30.29,10.0,North,5.8,-,N/A,,Clear,360,2013-03-01 21:35:00
4:15 PM,39.2,30.2,70,30.29,10.0,North,11.5,-,N/A,,Clear,350,2013-03-01 22:15:00
4:35 PM,37.4,30.2,75,30.29,10.0,North,10.4,-,N/A,,Clear,360,2013-03-01 22:35:00
4:55 PM,37.4,30.2,75,30.28,10.0,North,9.2,-,N/A,,Scattered Clouds,10,2013-03-01 22:55:00
5:15 PM,35.6,30.2,81,30.28,10.0,NNE,6.9,-,N/A,,Scattered Clouds,20,2013-03-01 23:15:00
5:35 PM,35.6,30.2,81,30.29,10.0,North,5.8,-,N/A,,Clear,360,2013-03-01 23:35:00
5:55 PM,35.6,30.2,81,30.29,10.0,North,4.6,-,N/A,,Clear,350,2013-03-01 23:55:00
6:15 PM,33.8,30.2,87,30.29,10.0,North,8.1,-,N/A,,Clear,360,2013-03-02 00:15:00
6:35 PM,33.8,30.2,87,30.30,10.0,North,9.2,-,N/A,,Clear,10,2013-03-02 00:35:00
6:55 PM,32.0,30.2,93,30.31,10.0,North,9.2,-,N/A,,Clear,360,2013-03-02 00:55:00
7:15 PM,32.0,30.2,93,30.32,10.0,North,10.4,-,N/A,,Clear,10,2013-03-02 01:15:00
7:35 PM,32.0,30.2,93,30.32,10.0,North,9.2,-,N/A,,Clear,10,2013-03-02 01:35:00
7:55 PM,32.0,30.2,93,30.33,10.0,North,9.2,-,N/A,,Clear,360,2013-03-02 01:55:00
8:15 PM,32.0,30.2,93,30.33,10.0,North,9.2,-,N/A,,Clear,360,2013-03-02 02:15:00
8:35 PM,32.0,30.2,93,30.33,10.0,North,9.2,-,N/A,,Clear,360,2013-03-02 02:35:00
8:55 PM,32.0,28.4,87,30.33,10.0,North,9.2,-,N/A,,Clear,350,2013-03-02 02:55:00
9:15 PM,32.0,30.2,93,30.34,10.0,North,10.4,-,N/A,,Clear,360,2013-03-02 03:15:00
9:35 PM,32.0,30.2,93,30.34,10.0,North,10.4,-,N/A,,Clear,350,2013-03-02 03:35:00
9:55 PM,32.0,28.4,87,30.35,10.0,North,9.2,-,N/A,,Clear,350,2013-03-02 03:55:00
10:15 PM,32.0,28.4,87,30.34,10.0,North,9.2,-,N/A,,Clear,350,2013-03-02 04:15:00
10:35 PM,32.0,28.4,87,30.35,10.0,NNW,5.8,-,N/A,,Clear,340,2013-03-02 04:35:00
10:55 PM,30.2,26.6,86,30.35,10.0,North,5.8,-,N/A,,Clear,350,2013-03-02 04:55:00
11:15 PM,30.2,26.6,86,30.36,10.0,North,5.8,-,N/A,,Clear,360,2013-03-02 05:15:00
11:35 PM,28.4,26.6,93,30.36,10.0,Calm,Calm,-,N/A,,Clear,0,2013-03-02 05:35:00